Miscellaneous Local Product
Issued by NWS North Platte, NE

Home | Current Version | Previous Version | Graphics & Text | Print | Product List | Glossary On
Versions: 1 2 3 4 5 6 7 8 9 10 11 12 13 14 15 16 17 18 19 20 21 22 23 24 25 26 27 28 29 30 31 32 33 34 35 36 37 38 39 40 41 42 43 44 45 46 47 48 49 50
000
AXUS43 KLBF 300210
MISLBF


WESTERN AND NORTH CENTRAL NEBRASKA HOURLY WEATHER ROUNDUP
NATIONAL WEATHER SERVICE NORTH PLATTE NE
800 PM CST THU JAN 29 2015

***STATIONS NOT REPORTING VARIABLES SUCH AS SKY/WEATHER OR
PRESSURE ARE PROVIDED BY THE NEBRASKA DEPARTMENT OF
ROADS...RAWS...AND APRS NETWORKS...AND ARE NOT UNDER
NATIONAL WEATHER SERVICE QUALITY CONTROL***

...OBSERVATIONS IN AND NEAR THE EASTERN PANHANDLE OF NEBRASKA...

CITY           SKY/WX    TMP DP  RH WIND       PRES   REMARKS
PINE RIDGE     CLEAR     25  11  55 NE7       30.40F WCI  17
CHADRON        CLEAR     30  19  63 SE3       30.38F
ALLIANCE       CLEAR     23  15  71 SE8       30.40F WCI  14
SIDNEY         CLEAR     29  16  58 SE7       30.42S WCI  22
WHITECLAY        N/A     24  12  59 SE5         N/A  WCI  19
CRESCENT LAKE    N/A     33   8  35 SE3         N/A
LISCO            N/A     33  15  48 E3          N/A
LEWELLEN         N/A     24  12  61 S6          N/A  WCI  17
$$

...OBSERVATIONS IN NORTH CENTRAL NEBRASKA...

CITY           SKY/WX    TMP DP  RH WIND       PRES   REMARKS
VALENTINE      CLEAR     28  18  66 S3        30.45S
THEDFORD       CLEAR     29  19  66 CALM      30.46S
AINSWORTH      CLEAR     25  19  77 S3        30.45F
O`NEILL        CLEAR     29  23  78 N5        30.49S WCI  24
ORD            CLEAR     26  18  71 CALM      30.48S
BROKEN BOW     CLEAR     25  17  72 CALM      30.48R
BROWNLEE         N/A     34  16  46 CALM        N/A
SPRINGVIEW       N/A     25  19  78 CALM        N/A
HALSEY           N/A     32  16  50 CALM        N/A
BREWSTER         N/A     30  21  68 CALM        N/A
ROSE             N/A     36  27  69 N3          N/A
NEWPORT          N/A     30  25  80 NE5         N/A  WCI  25
SARGENT          N/A     28  20  71 CALM        N/A
COMSTOCK         N/A     33  23  66 CALM        N/A
CHAMBERS         N/A     25  15  66 CALM        N/A
EWING            N/A     26  21  81 NE3         N/A
$$

...OBSERVATIONS IN SOUTHWEST NEBRASKA AND FAR NORTHEAST COLORADO...

CITY           SKY/WX    TMP DP  RH WIND       PRES   REMARKS
WRAY           FAIR      34  19  53 E3        30.45S
HOLYOKE        FAIR      32  19  59 SE6       30.45S WCI  26
IMPERIAL         N/A     29  18  63 CALM      30.46F
OGALLALA       PTCLDY    22  16  78 CALM      30.46S
NORTH PLATTE   PTCLDY    24  15  68 CALM      30.47S
MCCOOK         PTCLDY    29  18  63 CALM      30.48S
LEXINGTON      CLEAR     28  20  72 CALM      30.48F
BRADY            N/A     28  18  66 CALM        N/A
GOTHENBURG       N/A     32  17  52 CALM        N/A
CALLAWAY         N/A     23  18  80 CALM        N/A
$$

...NORTH PLATTE AREA...

CITY           SKY/WX    TMP DP  RH WIND       PRES   REMARKS
AIRPORT        PTCLDY    24  15  68 CALM      30.47S
DOWNTOWN         N/A     30  17  58 CALM        N/A
$$

...SOME WEATHER OBSERVATIONS FROM AROUND THE REGION...

CITY           SKY/WX    TMP DP  RH WIND       PRES   REMARKS
DENVER         MOCLDY    34  27  75 SE8       30.37F WCI  27
LARAMIE        MOCLDY    30  23  75 SE16      30.32F WCI  19
CHEYENNE       MOCLDY    33  19  56 S10       30.37S WCI  25
SCOTTSBLUFF    CLEAR     30  23  75 E8        30.40S WCI  22
RAPID CITY     CLEAR     26  14  60 CALM      30.38F
PIERRE         CLEAR     25  20  81 E8        30.46S WCI  16
WINNER         FAIR      27  19  72 SE8       30.47S WCI  19
SIOUX FALLS    CLOUDY    24  17  74 NW9       30.52R WCI  14
OMAHA          CLEAR     31  23  72 N13       30.52R WCI  21
GRAND ISLAND   CLEAR     28  18  66 CALM      30.50S
KANSAS CITY    FAIR      32  24  72 N9        30.49R WCI  24
WICHITA        PTCLDY    41  25  53 N7        30.50R
HAYS           PTCLDY    34  16  47 CALM      30.51R
LIBERAL        CLOUDY    43  21  42 E3        30.51R
GOODLAND       PTCLDY    30  20  66 SE7       30.46F WCI  23
$$



USA.gov is the U.S. government's official web portal to all federal, state and local government web resources and services.